Regional Weather Roundup
Issued by NWS

Home | Current Version | Previous Version | Graphics & Text | Print | Product List | Glossary On
Versions: 1 2 3 4 5 6 7 8 9 10 11 12 13 14 15 16 17 18 19 20 21 22 23 24 25 26 27 28 29 30 31 32 33 34 35 36 37 38 39 40 41 42 43 44 45 46 47 48 49 50
000
ASUS45 KTFX 231404
RWRMT
MONTANA HOURLY WEATHER ROUNDUP
NATIONAL WEATHER SERVICE GREAT FALLS MT
804 AM MDT TUE SEP 23 2014

NOTE: "FAIR" INDICATES FEW OR NO CLOUDS BELOW 12000 FEET WITH NO
SIGNIFICANT WEATHER AND/OR OBSTRUCTIONS TO VISIBILITY.

* THESE STATIONS ARE NOT UNDER NWS QUALITY CONTROL. THEY DO NOT
   REPORT WEATHER SUCH AS PRECIPITATION OR FOG.

MTZ001>007-043-231500-
WEST OF THE DIVIDE
CITY           SKY/WX    TMP DP  RH WIND       PRES   REMARKS
KALISPELL      LGT RAIN  54  52  93 CALM      30.03R
MISSOULA       PTSUNNY   54  45  72 CALM      30.06R
BUTTE          PTCLDY    37  36  96 S5        30.17R WCI  33
MULLAN PASS    CLOUDY    52  45  77 S8        30.12S
* ESSEX        N/A       46  42  86 NE4        N/A
* LINCOLN      N/A       35  33  92 W1         N/A
* POLSON       N/A       55  52  90 N/A        N/A
* RONAN APT    PTSUNNY   64  52  65 N/A        N/A
* SEELEY LAKE  N/A       39  36  89 NE2        N/A
* THOMP F APT  PTSUNNY   46  45  96 NE2        N/A
$$

MTZ008-052>055-231500-
SOUTHWEST MONTANA
CITY           SKY/WX    TMP DP  RH WIND       PRES   REMARKS
BOZEMAN        SUNNY     46  45  96 S6        30.11R
DILLON         SUNNY     50  45  83 S7        30.16R
W YELLOWSTONE  CLOUDY    48  46  93 CALM      30.26R
* THREE FORKS  SUNNY     41  25  53 N/A        N/A
* BOULDER HILL N/A       50  39  66 S11        N/A
* MONIDA PASS  N/A       41  41 100 N2         N/A
* RAYNOLDS PAS N/A       49  31  50 SE9        N/A
* WHITEHALL    N/A       45  43  93 NE2G7      N/A
* WISE RIVER   N/A       37  36  96 W6         N/A   WCI  32
$$

MTZ009>010-012-014-046-048-049-054-231500-
EAST SLOPES AND CENTRAL MONTANA
CITY           SKY/WX    TMP DP  RH WIND       PRES   REMARKS
CUT BANK       SUNNY     57  45  64 W14       29.97R
GREAT FALLS    SUNNY     59  46  62 SW13      29.98R
HELENA         PTCLDY    52  46  80 CALM      30.09R
MALMSTROM AFB  SUNNY     59  48  67 VRB1      30.00R
* CONRAD       SUNNY     61  48  62 SW8        N/A
* EAST GLACIER N/A       58  44  60 W9G14      N/A
* MONARCH      N/A       48  41  77 S2G8       N/A
* PENDROY      N/A       57  45  64 NW6        N/A
* ROGERS PASS  N/A       56  39  53 NW2        N/A
* SAINT MARY   N/A       63  44  50 S5G14      N/A
* SWEET GRASS  N/A       64  43  47 W18G24     N/A
$$

MTZ011-013-016-021-035-040-045-047-050-051-231500-
NORTH CENTRAL MONTANA
CITY           SKY/WX    TMP DP  RH WIND       PRES   REMARKS
HAVRE          PTCLDY    57  46  67 SW12      29.89S
LEWISTOWN      SUNNY     52  45  77 SE7       30.02R
* CHESTER      N/A       48  41  77 N/A        N/A
* DENTON       N/A       56  47  72 SE6        N/A
* GEYSER       N/A       55  43  64 SW6G11     N/A
* JUDITH GAP   N/A       56  46  69 E1         N/A
* LOMA         N/A       56  47  72 W6         N/A
$$

MTZ017>020-022>027-061-062-231500-
NORTHEAST MONTANA
CITY           SKY/WX    TMP DP  RH WIND       PRES   REMARKS
GLASGOW        SUNNY     46  45  96 W5        29.86R
GLENDIVE       PTCLDY    54  48  80 W3        29.88R
JORDAN         SUNNY     50  48  93 W3        29.88S
SIDNEY         SUNNY     52  48  86 CALM      29.87R
WOLF POINT     SUNNY     48  46  93 CALM      29.86R
* BEAVER HILL  N/A       57  51  80 S1G6       N/A
* CIRCLE       N/A       47  45  93 N/A        N/A
* LINDSAY DVD  N/A       61  51  70 W6         N/A
* NAVAJO       N/A       53  48  83 SW3        N/A
$$

MTZ028>042-056>058-231500-
SOUTHCENTRAL AND SOUTHEAST MONTANA
CITY           SKY/WX    TMP DP  RH WIND       PRES   REMARKS
BAKER          PTCLDY    55  50  83 CALM      29.90R
BILLINGS       PTCLDY    59  46  62 SW15      29.98R
LIVINGSTON     SUNNY     54  45  72 NW13G21   30.08R
MILES CITY     PTSUNNY   55  48  77 CALM      29.88R
* LAUREL APT   PTCLDY    55  43  64 SW7        N/A
* ROUNDUP APT  PTCLDY    57  46  67 S7         N/A
* ALZADA       N/A       59  56  90 S4         N/A
* HYSHAM       N/A       58  48  70 W8         N/A
* LAME DEER    N/A       58  46  65 W12        N/A
* REED POINT   N/A       52  49  90 N/A        N/A
* ROSCOE HILL  N/A       62  34  35 S11G16     N/A
$$

REGIONAL REPORTS...DAKOTAS
CITY           SKY/WX    TMP DP  RH WIND       PRES   REMARKS
WILLISTON      SUNNY     55  48  77 NE3       29.85S
DICKINSON      SUNNY     54  52  93 S8        29.87S
BEACH          N/A       54  54 100 S5        29.88S
CROSBY         SUNNY     54  54 100 S6        29.86S
TIOGA          SUNNY     50  50 100 NE3       29.91R
WATFORD CITY   SUNNY     52  50  93 E8        29.85S
BISMARCK       SUNNY     63  55  75 SE6       29.93R
GRAND FORKS    SUNNY     57  50  78 S14       30.02S
FARGO          SUNNY     59  48  67 SE14      30.05S
BUFFALO SD     PTSUNNY   59  55  87 SE7       29.85R
RAPID CITY     PTSUNNY   59  55  87 E5        29.93R
$$

REGIONAL REPORTS...WYOMING/IDAHO/WASHINGTON
CITY           SKY/WX    TMP DP  RH WIND       PRES   REMARKS
GILLETTE       PTSUNNY   57  48  72 W7        30.00R
SHERIDAN       PTCLDY    55  46  72 CALM      29.99R
CODY           SUNNY     64  45  50 W5        30.10R
YELLOWSTONE LA PTCLDY    46  46 100 CALM      30.33R
SALMON         SUNNY     48  46  93 CALM      30.13R
MULLAN PASS    CLOUDY    52  45  77 S8        30.12S
SAND POINT     CLOUDY    61  54  78 NE6       29.97S
SPOKANE        PTSUNNY   57  54  90 N3        29.93S

$$



USA.gov is the U.S. government's official web portal to all federal, state and local government web resources and services.